Regional Weather Roundup
Issued by NWS

Home | Current Version | Previous Version | Text Only | Print | Product List | Glossary Off
Versions: 1 2 3 4 5 6 7 8 9 10 11 12 13 14 15 16 17 18 19 20 21 22 23 24 25 26 27 28

000
ASUS45 KBOI 072310
RWRID

IDAHO REGIONAL WEATHER ROUNDUP
NATIONAL WEATHER SERVICE BOISE ID
400 PM MST WED DEC 07 2016

NOTE: "FAIR" INDICATES FEW OR NO CLOUDS BELOW 12000 FEET
WITH NO SIGNIFICANT WEATHER AND/OR OBSTRUCTIONS TO VISIBILITY

IDZ012-014-080000-
SOUTHWEST IDAHO


CITY           SKY/WX    TMP DP  RH WIND       PRES   REMARKS
BOISE          CLEAR     24  17  74 S10       30.36S WCI  14
CALDWELL       NOT AVBL
MOUNTAIN HOME  CLEAR     24  22  93 E8        30.36R WCI  14
$$

IDZ016-017-080000-
SOUTHCENTRAL IDAHO


CITY           SKY/WX    TMP DP  RH WIND       PRES   REMARKS
BURLEY         CLEAR     21  13  71 N5        30.30R WCI  15
JEROME         CLEAR     19  14  81 NE6       30.32R WCI  11
TWIN FALLS     CLEAR     22  14  71 N5        30.30R WCI  16
$$

IDZ019>023-080000-
SOUTHEAST IDAHO


CITY           SKY/WX    TMP DP  RH WIND       PRES   REMARKS
IDAHO FALLS    MOCLDY    20   5  52 NE5       30.30R WCI  13
POCATELLO      MOCLDY    16  11  80 CALM      30.32R
REXBURG        CLEAR     13   0  56 E5        30.30R WCI   5
$$

IDZ006-010-011-018-031-032-080000-
CENTRAL IDAHO MOUNTAINS


CITY           SKY/WX    TMP DP  RH WIND       PRES   REMARKS
MCCALL         CLOUDY    14   7  73 S3        30.20R
HAILEY         PTCLDY    16   9  73 S7        30.25S WCI   6
STANLEY          N/A     11   1  64 CALM      30.15S
SALMON         MOCLDY    19   7  58 CALM      30.30R
CHALLIS        CLEAR     21   5  50 CALM      30.22R
$$

IDZ002-004-006-007-026-080000-
NORTHERN IDAHO


CITY           SKY/WX    TMP DP  RH WIND       PRES   REMARKS
LEWISTON       CLEAR     28  19  69 SE5       30.44S WCI  23
LOWELL           N/A     29  23  78 CALM      30.45R
COEUR D`ALENE  MOCLDY    26  13  57 N14       30.42R WCI  14
MULLAN PASS    CLOUDY     5   2  87 SE3       30.16S
$$




USA.gov is the U.S. government's official web portal to all federal, state and local government web resources and services.